Tracking 29747 objects as of 9-Oct-2024
HD Live streaming from Space Station
objects crossing your sky now

DELTA 1 DEB

Track DELTA 1 DEB now!
10-day predictions


NORAD ID: 21446
Int'l Code: 1975-052EE
Perigee: 1,092.6 km
Apogee: 1,672.3 km
Inclination: 99.7 °
Period: 113.2 minutes
Semi major axis: 7753 km
RCS: 0.0507 m2 (small)
Launch date: June 12, 1975
Source: United States (US)
Launch site: AIR FORCE WESTERN TEST RANGE (AFWTR)

Note: This is SATELLITE DEBRIS
Your satellite tracking list
Your tracking list is empty




NASA's NSSDC Master Catalog

Two Line Element Set (TLE):
1 21446U 75052EE  24283.15137618  .00000316  00000-0  13129-2 0  9995
2 21446  99.6871 251.6018 0373797 307.4107  61.3403 12.71623840551372
Source of the keplerian elements: AFSPC